SBIRS GEO-2 (USA 241)

Last updated on Thu Nov 21 2024 00:02:42 GMT+0000 (Coordinated Universal Time)

1 39120U 13011A 24325.28767646 -.00000255 00000+0 00000+0 0 9994 2 39120 3.2842 49.4017 0002214 192.1253 243.8487 1.00271424 42781
UTC large
Height (km)
Speed (km/s)
/
Latitude / Longitude
Inclination (degrees)
Orbital Period (minutes)
Azimuth
Elevation
Range (km)
Doppler Factor

Next 0 passes for location: London (51.5072 / 0.1276)

Sorry there are no passes over London.